This is the latest recevied weather packets stored in our database for station/object KU9TRY. If no packets are shown the sender has not sent any weather packets the latest 10 day(s).
| Time | Temp. | Humidity | Pressure | Rain* | Wind** | Luminosity | Snow |
|---|---|---|---|---|---|---|---|
| 1778266065 | 21.67° C | 28% | 1014.7 hPa | 0 mm | - | 48 W/m² | - |
| 1778265762 | 21.67° C | 32% | 1014.6 hPa | 0 mm | - | 48 W/m² | - |
| 1778265459 | 21.11° C | 29% | 1014.9 hPa | 0 mm | - | 54 W/m² | - |
| 1778265155 | 21.67° C | 26% | 1014.9 hPa | 0 mm | - | 199 W/m² | - |
| 1778264851 | 21.11° C | 32% | 1014.8 hPa | 0 mm | - | 51 W/m² | - |
| 1778264548 | 21.11° C | 31% | 1015.3 hPa | 0 mm | - | 53 W/m² | - |
| 1778264244 | 21.11° C | 34% | 1015 hPa | 0 mm | - | 51 W/m² | - |
| 1778263941 | 21.11° C | 27% | 1015.4 hPa | 0 mm | - | 53 W/m² | - |
| 1778263637 | 20.56° C | 29% | 1015.3 hPa | 0 mm | - | 53 W/m² | - |
| 1778263334 | 20.56° C | 33% | 1015.6 hPa | 0 mm | - | 54 W/m² | - |
| 1778263031 | 20.56° C | 29% | 1015.6 hPa | 0 mm | - | 54 W/m² | - |
| 1778262728 | 20.56° C | 30% | 1015.8 hPa | 0 mm | - | 56 W/m² | - |
| 1778262426 | 21.11° C | 28% | 1015.7 hPa | 0 mm | - | 56 W/m² | - |
| 1778262122 | 20.56° C | 30% | 1015.7 hPa | 0 mm | - | 93 W/m² | - |
| 1778261819 | 20.56° C | 32% | 1015.6 hPa | 0 mm | - | 1020 W/m² | - |
| 1778261514 | 20.56° C | 31% | 1015.8 hPa | 0 mm | - | 1018 W/m² | - |
| 1778261212 | 20.56° C | 30% | 1016 hPa | 0 mm | - | 1021 W/m² | - |
| 1778260909 | 20.56° C | 34% | 1016 hPa | 0 mm | - | 1023 W/m² | - |
| 1778260605 | 20.56° C | 36% | 1016 hPa | 0 mm | - | 1022 W/m² | - |
| 1778260301 | 20.56° C | 31% | 1016.1 hPa | 0 mm | - | 1021 W/m² | - |
| 1778259999 | 20.56° C | 32% | 1016.2 hPa | 0 mm | - | 1021 W/m² | - |
| 1778259696 | 20° C | 33% | 1016.3 hPa | 0 mm | - | 1020 W/m² | - |
| 1778259393 | 20° C | 32% | 1016.5 hPa | 0 mm | - | 1015 W/m² | - |
| 1778259090 | 20° C | 32% | 1016.4 hPa | 0 mm | - | 1013 W/m² | - |
| 1778258786 | 20° C | 31% | 1016.7 hPa | 0 mm | - | 1011 W/m² | - |
* Rain latest hour (hover to see other rain measurements)
** Current wind speed in m/s (hover to see current wind gust speed)